User: anonymous   Login
Location: Codford Saint Peter
(51.1597°N, 2.0531°W)
Time: 04:15:23
(UTC+00:00)
Language:

Cosmos 1544 - Orbit

View from above orbital plane
View from above orbital plane
View from above satellite
View from above satellite

Ground track
Ground track

The orbit data is extracted from the following two-line orbital elements,

1 14819U 84027A   20337.36344875  .00002518  00000-0  89914-4 0  9990
2 14819  82.4826 194.5356 0011753 263.9185  96.0715 15.28325921  8485
Epoch (UTC): 02 December 2020 08:43:21
Eccentricity: 0.0011753
inclination: 82.4826°
perigee height: 473 km
apogee height: 489 km
right ascension of ascending node: 194.5356°
argument of perigee: 263.9185°
revolutions per day: 15.28325921
mean anomaly at epoch: 96.0715°
orbit number at epoch: 848

The dashed part of the orbit path shows where the satellite is in the earth's shadow,  

DLR